Location: Sternwarte ZA, Rosenfeld-Brittheim
(48.2889°N, 8.6789°E)
Time: 21:46:24
(UTC+02:00)

ISS - Pass Details

Date: 21 September 2019
Orbit: 411 x 421 km, 51.6° (Epoch: 19 September)

Event Time Altitude Azimuth Distance (km) Brightness Sun altitude
Rises 20:33:43 0° 222° (SW) 2,334 0.4 -11.9°
Reaches altitude 10° 20:35:53 10° 213° (SSW) 1,475 -0.8 -12.3°
Maximum altitude 20:38:57 35° 146° (SE) 683 -3.1 -12.8°
Enters shadow 20:40:17 24° 99° (E) 894 -2.7 -13.0°
